Temperature
19 19 19 20 19 20 22 26 27 26 27 26 26 26 26 26 24 22 22 22 22 22 22 22 22 21 21 20 20 19 19 19 18 18 18 18 17 17 17 17 17 17 16 16 17 17 17 17 17
19 19 20 20 20 21 24 25 26 26 26 26 26 26 27 26 25 23 22 22 22 21 22 22 22 21 21 20 20 20 19 19 19 18 18 18 17 17 17 17 16 16 16 16 16 17 17 17 17
19 20 20 20 21 23 24 25 25 26 26 26 27 26 26 25 25 23 22 22 22 21 21 21 21 21 21 21 20 20 20 19 19 18 18 18 18 17 17 17 16 16 16 16 16 16 16 16 16
19 20 22 21 22 25 25 25 25 26 26 26 26 26 26 25 24 23 22 22 22 21 21 21 20 20 20 20 20 20 20 20 19 19 18 18 18 17 17 17 16 16 16 16 16 16 16 16 16
19 21 21 21 23 26 26 26 26 25 26 27 26 26 26 24 24 23 22 22 22 21 21 21 20 20 20 20 20 20 20 19 19 19 19 18 17 17 17 16 16 16 16 16 16 16 16 16 16
21 22 21 22 24 26 26 25 26 25 26 26 26 26 24 23 23 23 22 22 21 21 20 20 20 20 20 20 19 19 19 19 19 19 18 18 18 17 17 16 16 16 16 16 16 16 16 16 16
21 20 20 22 23 25 25 25 25 23 24 24 24 24 24 22 22 22 22 22 21 21 20 19 19 20 19 19 18 18 18 18 18 18 18 18 17 17 17 16 16 16 16 16 16 16 16 16 16
20 20 22 23 24 24 24 25 24 24 23 24 24 24 24 23 22 22 22 21 20 20 19 19 18 18 18 18 18 17 17 17 17 17 17 17 17 17 17 16 16 16 15 15 16 16 16 16 16
20 19 21 22 22 23 24 24 24 24 24 24 25 24 24 23 22 21 21 20 20 20 19 19 18 18 17 17 17 17 16 16 17 17 17 16 16 16 15 15 15 15 15 15 15 16 16 16 16
20 19 22 23 23 22 23 23 23 23 23 24 23 23 22 22 21 21 21 21 21 20 19 19 18 18 18 17 16 16 16 15 16 16 15 15 15 15 14 14 14 14 14 14 15 15 16 16 16
22 21 22 23 23 22 22 22 23 22 21 22 22 21 21 21 21 21 21 21 21 20 19 18 17 18 18 17 16 16 15 15 15 15 15 15 14 14 14 14 14 14 14 14 15 15 16 16 16
22 22 23 23 22 22 21 22 22 22 22 22 21 21 20 20 20 20 20 20 19 18 17 17 17 17 17 17 16 16 15 15 15 15 15 15 15 14 14 14 14 14 14 13 13 13 14 14 15
22 22 23 22 22 22 21 21 22 22 21 21 20 18 18 18 18 18 19 18 18 18 17 16 16 16 16 16 16 16 15 15 15 15 15 14 14 14 14 14 14 14 13 13 13 13 13 13 14
22 21 22 22 22 21 21 21 21 20 20 19 17 16 15 15 15 16 17 17 17 17 17 16 16 15 15 15 15 15 15 15 15 14 14 14 14 14 14 13 13 13 13 13 13 13 13 13 14
21 20 21 22 22 21 20 19 18 19 18 17 16 15 14 13 13 13 14 15 15 15 15 15 15 15 15 15 14 14 15 15 14 14 14 14 14 13 13 13 13 13 13 13 12 12 13 13 13
21 20 20 21 22 21 20 18 18 18 16 15 15 14 13 12 11 12 12 13 14 14 15 15 14 14 14 14 14 14 14 14 14 14 14 14 13 13 12 12 12 12 12 12 12 12 13 13 13
21 20 21 21 21 20 20 18 17 17 15 14 14 13 12 11 11 10 11 12 13 13 14 14 14 13 13 13 13 13 13 13 14 13 13 13 13 13 12 12 12 12 12 12 12 12 12 12 13
18 19 19 20 20 19 19 18 16 16 14 13 13 12 11 11 10 10 10 11 12 12 13 13 13 13 13 13 12 13 13 13 13 13 13 13 13 12 12 12 12 12 12 12 12 12 12 12 12
19 19 19 20 19 19 18 18 15 14 13 12 12 11 10 10 10 9 9 9 10 10 11 12 12 13 12 12 12 12 12 12 12 12 12 12 12 12 11 11 11 11 11 11 11 11 11 11 11
18 18 19 19 20 18 17 17 14 13 12 12 11 11 10 10 9 9 8 8 8 7 8 9 10 11 11 11 11 11 11 11 12 12 12 12 12 11 11 11 11 11 11 11 10 10 11 10 11
18 17 16 16 17 17 17 16 12 12 12 12 11 10 10 9 9 9 8 8 7 7 6 6 7 7 8 8 9 10 10 10 11 11 11 11 11 10 10 10 10 10 10 10 10 10 10 10 10
16 17 16 16 15 15 17 15 11 11 11 11 11 10 10 9 9 8 8 7 7 7 6 6 6 6 6 7 7 8 8 9 10 10 11 10 10 10 9 10 10 10 10 9 9 9 9 9 9
15 15 15 15 14 14 15 15 14 12 11 10 10 10 9 9 8 8 8 7 7 6 6 6 6 6 5 5 6 6 7 7 8 9 10 10 10 9 9 9 9 9 9 8 8 9 9 9 9
16 15 16 16 15 14 16 15 13 10 9 9 10 9 9 8 8 7 7 7 6 6 6 6 6 5 5 5 4 4 5 6 7 8 9 9 9 9 9 9 8 8 8 8 8 8 8 8 8
15 13 14 14 14 15 16 15 9 9 10 9 9 8 8 7 7 7 7 6 6 6 6 6 5 5 5 4 4 3 3 4 5 6 7 8 9 9 9 8 8 7 7 7 7 7 7 7 7
13 14 12 11 13 13 14 13 7 10 10 9 8 8 7 7 7 7 6 6 6 6 5 5 5 5 4 4 3 3 2 3 4 5 6 7 8 7 8 8 7 7 7 7 7 6 6 6 7
13 12 13 11 12 12 14 7 9 11 9 9 8 7 7 6 6 6 6 5 5 4 4 4 4 4 3 3 2 2 2 2 2 3 5 6 7 6 6 7 7 7 6 6 6 6 6 6 6
13 13 11 11 11 10 12 13 9 9 7 7 7 6 6 6 5 5 4 4 3 3 2 2 3 3 2 2 1 1 1 1 2 2 3 5 6 6 5 5 5 6 6 6 5 5 5 5 5
12 13 12 11 11 9 9 10 9 7 7 6 6 6 5 5 4 4 3 2 2 1 1 1 1 1 1 0 0 -0 -1 -1 -0 1 2 4 5 6 5 4 4 4 5 5 5 5 5 4 4
11 12 10 9 8 8 7 8 10 7 7 6 6 5 4 4 3 3 2 1 0 -1 -1 -0 -0 -0 -1 -1 -1 -1 -2 -2 -2 -1 1 2 3 4 4 3 3 3 3 3 4 4 4 3 2
Wind_Speed
13 14 8 2 3 6 9 3 7 6 5 9 7 5 6 7 7 6 5 6 7 10 14 13 11 10 10 9 8 7 7 6 5 3 2 1 0 1 2 3 4 6 7 6 5 4 4 4 3
10 11 5 4 4 7 4 7 3 8 9 4 0 3 5 7 9 9 6 6 6 9 13 14 14 11 10 9 9 8 7 6 5 4 3 1 0 1 3 4 4 4 5 5 5 4 4 4 3
9 12 5 4 6 4 8 9 10 7 5 2 3 0 4 6 6 6 6 6 5 8 10 16 17 12 10 10 9 9 8 7 5 4 4 3 2 2 3 2 0 1 1 2 2 3 3 4 4
7 5 4 5 12 5 7 9 8 6 3 3 4 5 7 6 5 7 6 4 5 9 12 18 16 13 12 11 10 9 9 8 7 6 5 4 4 2 2 1 3 3 2 1 1 2 3 4 4
4 4 5 8 10 3 5 9 5 6 4 2 4 7 4 6 11 10 7 3 3 4 13 17 16 13 12 11 10 10 9 8 8 7 5 5 5 4 3 1 2 2 2 1 1 2 3 4 5
4 4 5 7 4 5 6 9 6 7 7 4 3 6 5 8 11 8 5 2 2 5 9 15 16 13 11 10 10 9 9 9 9 8 6 6 6 6 6 5 4 4 3 2 2 3 4 5 5
4 4 7 8 7 5 8 9 9 10 10 10 8 8 5 10 8 5 5 3 6 7 3 8 13 13 12 11 10 9 8 8 9 8 8 7 7 7 7 6 4 5 5 3 1 2 4 5 5
4 4 7 4 4 5 8 5 5 6 7 7 2 5 3 6 6 4 4 3 5 3 2 3 4 12 14 14 15 12 9 8 8 8 8 6 5 6 7 7 6 5 4 4 2 1 3 4 4
4 4 5 6 7 7 8 7 8 7 6 7 4 4 4 9 6 2 2 4 6 6 4 3 6 4 1 7 15 14 11 9 8 9 10 7 7 9 11 11 8 7 4 3 4 4 2 3 7
4 3 5 6 7 8 9 9 9 7 8 10 11 14 11 6 2 3 6 6 2 6 8 7 6 7 5 3 7 10 11 11 11 11 13 12 11 12 9 9 10 8 7 8 10 11 9 8 9
5 5 7 6 6 7 8 9 9 9 9 9 10 12 12 9 10 7 5 6 7 9 10 7 6 5 6 3 2 1 2 6 10 12 11 11 9 6 5 7 8 10 10 9 11 12 10 10 9
4 8 8 5 6 6 8 9 9 8 7 9 9 9 10 12 13 12 10 10 9 10 9 7 7 5 5 4 3 3 2 1 2 3 3 2 1 2 2 2 3 5 5 5 5 4 7 9 10
7 8 7 6 5 6 7 8 8 6 10 13 16 20 22 20 17 15 12 10 9 7 8 6 5 6 5 4 2 2 4 2 2 2 3 3 1 2 3 3 2 2 1 2 3 5 7 7 6
7 9 9 9 4 5 7 9 5 11 14 19 22 21 21 21 21 20 17 13 11 10 9 8 8 8 6 3 2 3 2 1 2 1 3 5 2 2 2 2 2 2 2 3 3 6 6 6 6
7 10 10 1 3 4 6 7 10 11 17 19 18 17 19 19 19 19 19 17 15 13 11 9 7 8 9 7 5 5 3 3 2 2 4 5 4 3 3 3 3 4 4 4 4 7 6 5 3
8 7 3 6 2 3 6 6 10 13 18 17 15 14 15 17 19 17 20 19 20 18 17 14 10 8 9 9 7 5 4 4 3 3 3 6 6 4 3 4 5 5 4 4 5 6 5 5 4
3 7 7 4 5 5 5 5 10 12 16 14 13 12 13 16 19 19 20 20 21 21 21 19 16 12 9 8 7 6 6 5 3 4 3 4 6 5 3 5 5 4 5 5 5 5 4 4 5
10 10 9 9 5 7 6 3 10 11 15 13 12 12 13 15 16 15 17 18 19 20 21 21 19 17 13 8 6 6 6 5 4 4 3 4 4 7 4 4 5 4 3 4 4 5 4 3 3
8 9 11 7 5 4 6 2 11 11 12 12 10 11 12 12 12 13 15 16 17 19 20 21 20 19 16 11 8 7 6 6 5 5 4 4 5 6 4 3 4 2 2 4 5 3 3 2 2
9 10 8 6 8 11 9 2 13 13 12 10 10 10 10 11 12 12 13 13 13 13 15 17 18 18 17 14 12 9 8 6 6 4 2 3 5 5 4 4 3 3 1 3 4 2 2 2 2
10 6 7 10 13 9 9 3 13 12 11 10 10 9 9 11 12 11 11 11 10 10 10 13 13 15 17 17 13 13 9 6 5 5 4 5 6 5 4 4 3 2 0 2 3 2 2 2 3
8 10 11 12 9 6 6 2 10 11 10 10 9 9 9 10 10 10 10 10 10 9 8 9 10 11 12 15 17 19 15 11 9 7 6 7 8 6 4 3 3 3 2 2 3 1 1 2 2
7 12 17 17 10 9 7 7 7 11 8 9 9 10 10 10 11 12 11 10 10 10 9 10 11 10 11 13 15 17 17 15 12 10 9 7 7 7 5 3 3 3 2 2 3 2 2 2 1
8 13 17 9 2 5 4 6 5 5 7 7 9 11 12 12 13 13 12 11 11 12 12 12 12 10 9 10 11 13 18 19 19 15 12 7 4 4 5 3 3 2 1 2 2 2 1 1 0
11 8 6 5 1 2 6 3 7 5 7 10 11 12 13 14 14 14 15 14 14 13 13 12 13 11 9 9 11 12 15 18 20 17 12 9 4 4 6 5 3 2 2 1 2 3 3 2 1
9 7 6 5 5 9 10 2 8 6 9 11 11 12 14 15 15 15 14 13 13 14 15 13 13 11 9 10 11 12 15 15 16 18 14 7 2 2 2 6 4 3 4 3 2 2 3 3 2
6 7 4 4 8 7 2 6 5 4 9 11 14 15 15 15 16 16 16 15 16 17 17 15 14 11 10 10 12 14 15 18 21 21 17 6 3 4 6 6 6 5 4 3 3 2 4 4 3
3 2 5 5 6 7 8 1 6 7 11 13 14 15 16 17 17 16 16 17 17 19 18 18 16 12 10 10 12 15 17 19 21 22 18 8 7 8 6 5 4 3 3 4 4 2 3 5 4
6 3 3 4 6 5 6 3 8 12 12 13 14 15 17 17 17 16 16 17 18 20 20 19 17 14 12 13 13 15 16 18 19 20 19 7 5 9 9 7 3 2 3 4 3 3 3 4 5
2 4 5 4 6 6 7 4 10 13 12 13 15 18 21 21 17 17 19 18 18 20 19 17 15 15 15 15 15 15 17 18 18 19 17 7 3 7 8 8 6 5 4 4 4 5 6 5 4
Wind_Direction
295 270 256 276 254 235 250 81 63 75 53 46 33 355 335 38 42 85 168 102 107 117 129 155 169 178 184 187 190 187 183 179 181 183 180 51 8 279 289 263 242 232 225 220 223 239 238 238 243
293 294 294 245 254 257 215 109 104 68 62 37 62 301 306 79 82 115 126 86 98 114 138 158 167 177 185 190 191 191 192 197 198 201 211 199 44 341 315 299 254 238 228 226 236 256 258 251 240
268 273 273 257 257 319 54 65 56 42 82 343 320 144 27 53 69 94 95 120 155 132 128 145 156 170 182 192 195 196 199 197 207 223 240 228 242 308 308 321 191 187 225 228 242 265 274 265 258
278 272 239 248 278 22 29 59 46 331 124 143 332 317 116 86 67 82 98 134 202 148 122 135 152 167 182 192 197 200 204 201 214 219 233 234 234 261 337 49 108 107 107 140 244 281 273 265 256
246 267 254 260 267 39 37 47 23 300 305 104 54 314 70 92 91 86 79 73 328 82 120 139 154 170 184 194 200 205 208 211 222 213 222 226 222 239 252 228 145 131 131 166 251 282 278 272 264
263 257 276 284 332 58 51 48 336 334 342 6 46 338 67 108 100 89 80 29 81 70 113 142 158 173 188 199 208 213 214 218 228 218 218 219 217 227 231 232 214 192 178 190 249 275 278 281 276
280 286 281 305 334 356 45 20 15 4 345 30 20 336 67 76 84 106 100 42 55 55 77 142 162 175 187 200 211 217 221 226 230 219 223 236 236 230 232 221 222 217 212 201 233 304 282 281 278
319 290 272 278 356 21 55 9 28 12 340 333 360 320 26 109 96 69 73 52 60 67 47 10 188 179 180 191 201 200 210 227 229 220 223 226 229 230 228 213 213 197 190 192 194 265 304 282 272
279 270 296 6 16 8 25 7 346 335 297 299 282 287 45 94 71 9 290 216 194 177 133 70 346 5 190 191 180 187 195 213 224 219 215 205 230 232 216 217 184 161 166 206 224 224 236 273 261
229 278 331 23 357 353 348 338 322 323 330 329 353 12 35 37 16 290 287 287 254 115 74 47 17 3 340 335 145 181 190 194 208 220 201 205 223 234 216 168 165 186 214 232 241 240 237 238 244
235 269 321 342 13 3 331 325 331 339 326 351 24 9 357 353 344 325 319 335 59 68 59 36 21 3 353 347 33 331 211 183 204 227 203 197 211 214 175 166 187 206 220 229 240 233 234 231 231
269 288 296 326 0 331 316 321 317 311 334 31 32 10 8 13 8 1 19 27 49 67 68 36 6 20 13 4 61 339 302 222 256 271 257 216 204 223 218 209 215 207 208 214 224 213 228 226 228
268 269 306 323 317 321 329 308 302 350 41 36 40 37 32 26 15 7 18 18 21 44 76 61 9 11 24 18 67 279 290 286 258 243 297 289 259 241 234 224 202 219 262 273 246 247 248 243 245
323 327 303 284 313 30 333 308 346 32 46 54 54 47 39 32 24 17 11 12 7 17 36 41 24 7 2 339 318 258 281 250 283 284 253 261 251 260 245 239 219 240 248 256 266 264 256 237 227
299 283 278 194 75 59 318 32 42 52 63 59 55 50 44 35 30 24 16 12 9 6 8 13 17 3 340 337 347 338 315 298 296 293 291 287 247 223 246 243 236 232 234 251 262 271 275 280 270
245 260 244 111 73 55 326 52 56 66 70 61 52 47 47 38 31 26 24 19 14 9 4 359 356 352 338 333 334 330 319 327 331 310 308 305 297 249 225 233 235 228 221 232 245 254 265 269 275
276 326 2 84 99 36 353 63 79 73 76 67 53 44 42 38 31 26 25 23 19 13 7 359 352 346 333 324 320 304 297 315 314 299 288 288 298 288 251 241 241 225 219 233 254 256 250 253 257
349 340 339 326 54 24 349 61 96 74 76 67 55 42 36 37 31 24 23 22 19 14 9 3 355 348 340 330 322 316 311 301 287 285 279 282 293 286 262 264 256 249 239 247 261 276 279 259 265
322 308 300 310 94 5 305 318 110 86 74 66 53 46 34 31 29 24 22 19 19 14 8 3 358 351 346 338 329 316 303 290 272 252 254 271 271 277 268 274 286 277 274 261 250 256 288 284 346
298 294 311 352 355 328 282 221 113 93 82 69 57 46 35 21 21 21 20 16 17 15 6 359 357 349 344 337 328 311 296 292 293 285 278 297 286 278 269 255 261 250 237 320 297 261 256 241 193
327 3 350 319 316 279 261 193 123 108 93 77 61 47 38 23 14 11 11 8 5 9 360 352 349 350 346 339 334 329 314 297 286 280 260 256 263 260 261 280 287 296 146 298 294 295 266 261 233
322 359 324 301 307 304 325 277 149 129 100 71 50 35 27 23 9 2 358 357 354 352 343 339 343 347 348 347 345 339 327 312 291 268 235 217 230 237 227 254 289 306 307 294 286 259 50 58 357
310 310 288 276 268 275 260 255 170 137 96 59 38 26 16 14 5 356 347 346 343 338 335 338 339 342 346 349 346 339 330 322 315 309 290 237 208 210 203 205 275 291 299 303 328 20 43 52 9
313 299 289 262 210 280 256 204 92 73 61 43 32 21 11 6 359 348 341 342 339 338 337 335 329 328 336 340 339 334 328 323 316 308 299 276 232 197 182 182 225 256 349 14 13 4 344 254 317
355 345 348 3 232 185 1 295 95 105 64 41 28 16 6 360 352 345 345 342 333 327 324 321 317 316 327 337 334 329 323 319 311 300 290 280 253 214 186 170 188 213 194 126 21 354 337 297 240
332 340 10 326 302 312 303 103 131 126 57 38 23 12 4 355 346 339 335 330 324 325 324 321 320 317 333 340 336 333 328 321 311 301 288 282 300 298 189 146 120 74 60 58 37 359 320 313 286
356 14 359 290 276 271 232 109 178 107 42 28 16 8 356 347 343 339 337 335 335 335 330 329 326 328 342 346 343 335 331 323 314 305 291 258 132 71 39 52 70 62 55 45 36 30 340 342 349
42 307 304 297 309 300 296 40 116 43 27 18 9 359 351 348 344 342 341 341 342 340 336 336 331 336 344 350 346 333 326 320 317 313 297 254 156 130 110 61 41 47 50 44 42 22 359 356 340
346 328 337 309 281 282 297 37 99 56 31 13 1 354 349 345 342 343 346 342 344 341 334 330 331 340 349 352 342 329 322 319 317 315 307 270 158 136 132 129 140 117 79 58 49 28 12 343 313
339 3 7 323 300 320 309 291 90 41 28 10 357 352 350 344 343 348 345 340 343 338 333 333 342 353 353 346 336 331 327 324 322 318 313 310 112 119 127 134 145 133 100 76 71 64 53 41 26
Height
1505 1505 1506 1506 1506 1505 1497 1479 1475 1480 1481 1485 1487 1486 1486 1487 1492 1502 1500 1498 1498 1498 1498 1499 1499 1499 1500 1500 1501 1501 1502 1503 1504 1506 1506 1507 1508 1509 1510 1511 1512 1513 1515 1516 1517 1518 1519 1520 1521
1505 1506 1507 1506 1506 1506 1490 1479 1480 1482 1486 1488 1488 1488 1486 1488 1492 1496 1498 1498 1499 1499 1498 1499 1499 1500 1500 1500 1501 1501 1502 1502 1504 1505 1506 1506 1507 1508 1509 1510 1511 1512 1513 1514 1516 1517 1518 1519 1520
1505 1506 1507 1503 1501 1496 1489 1481 1483 1484 1487 1489 1488 1488 1489 1491 1495 1497 1498 1498 1499 1499 1499 1499 1499 1500 1500 1501 1501 1501 1501 1502 1503 1503 1504 1505 1506 1507 1508 1509 1510 1511 1512 1513 1514 1515 1516 1518 1519
1507 1507 1505 1504 1500 1485 1484 1484 1486 1487 1487 1489 1489 1488 1488 1492 1495 1497 1497 1498 1499 1499 1497 1499 1499 1500 1500 1501 1501 1501 1501 1501 1502 1502 1503 1503 1504 1505 1506 1507 1508 1509 1511 1512 1513 1514 1515 1516 1517
1508 1506 1504 1503 1493 1484 1483 1486 1489 1489 1487 1487 1490 1489 1489 1492 1493 1496 1497 1498 1499 1500 1497 1498 1499 1500 1500 1500 1500 1500 1500 1500 1500 1501 1501 1502 1502 1503 1504 1506 1507 1508 1509 1510 1511 1512 1514 1515 1516
1508 1504 1508 1503 1490 1485 1485 1489 1490 1489 1488 1488 1489 1490 1492 1492 1493 1496 1497 1498 1499 1499 1497 1497 1498 1498 1498 1498 1498 1498 1498 1498 1499 1499 1500 1500 1500 1501 1503 1504 1505 1506 1507 1508 1509 1510 1512 1513 1514
1509 1506 1506 1499 1495 1490 1489 1491 1492 1493 1492 1492 1493 1492 1493 1494 1494 1495 1496 1496 1497 1497 1497 1497 1496 1497 1497 1497 1497 1497 1497 1497 1497 1497 1497 1498 1498 1499 1500 1501 1502 1503 1504 1506 1507 1508 1509 1510 1511
1507 1506 1501 1495 1495 1494 1492 1493 1494 1495 1495 1494 1494 1494 1493 1494 1494 1494 1495 1495 1495 1495 1496 1497 1497 1495 1494 1494 1495 1495 1495 1495 1495 1496 1496 1496 1496 1497 1498 1499 1500 1501 1502 1503 1504 1505 1506 1507 1509
1508 1509 1505 1497 1497 1495 1493 1495 1496 1496 1495 1494 1493 1494 1493 1492 1493 1493 1494 1494 1494 1494 1494 1495 1495 1496 1495 1494 1492 1492 1492 1493 1493 1494 1494 1494 1495 1495 1496 1497 1497 1498 1499 1500 1501 1502 1503 1504 1505
1507 1510 1501 1497 1497 1497 1497 1497 1497 1495 1494 1494 1493 1492 1493 1493 1493 1494 1494 1495 1496 1495 1494 1494 1494 1493 1493 1493 1492 1490 1490 1490 1491 1492 1492 1493 1493 1494 1495 1495 1495 1496 1497 1498 1498 1499 1500 1500 1502
1503 1504 1498 1497 1497 1499 1499 1498 1497 1496 1496 1496 1495 1494 1494 1494 1494 1494 1494 1495 1495 1494 1493 1494 1493 1492 1492 1491 1491 1491 1490 1490 1490 1491 1492 1492 1493 1494 1494 1493 1493 1493 1493 1494 1494 1495 1496 1497 1498
1501 1500 1498 1498 1498 1499 1500 1499 1498 1497 1497 1497 1497 1497 1495 1494 1494 1495 1494 1495 1494 1494 1494 1494 1493 1492 1491 1491 1490 1490 1490 1490 1490 1491 1492 1492 1492 1492 1491 1491 1491 1490 1490 1490 1490 1491 1492 1493 1495
1499 1498 1497 1498 1498 1499 1499 1498 1496 1497 1497 1497 1497 1496 1496 1495 1495 1495 1495 1496 1496 1496 1494 1494 1493 1492 1491 1490 1490 1489 1489 1489 1490 1489 1490 1490 1489 1489 1489 1488 1488 1488 1488 1488 1488 1488 1488 1490 1491
1499 1498 1497 1497 1497 1499 1499 1497 1497 1500 1498 1498 1499 1501 1501 1500 1498 1496 1495 1496 1496 1496 1495 1494 1493 1492 1491 1491 1490 1489 1489 1489 1488 1488 1487 1487 1487 1486 1486 1485 1485 1485 1484 1485 1485 1485 1485 1486 1486
1499 1498 1495 1494 1496 1499 1500 1502 1503 1502 1500 1502 1505 1507 1507 1505 1502 1500 1498 1496 1496 1495 1495 1494 1493 1492 1491 1491 1490 1489 1488 1488 1487 1486 1485 1484 1484 1483 1482 1482 1481 1481 1481 1480 1480 1481 1481 1482 1482
1497 1498 1498 1497 1495 1497 1502 1509 1506 1504 1502 1507 1510 1512 1512 1510 1507 1503 1500 1497 1496 1495 1494 1494 1493 1492 1491 1490 1489 1488 1487 1486 1484 1483 1482 1481 1480 1480 1479 1478 1478 1477 1477 1477 1477 1476 1476 1477 1477
1497 1503 1499 1498 1497 1498 1501 1507 1508 1506 1506 1511 1514 1515 1515 1512 1509 1505 1502 1499 1498 1496 1494 1493 1491 1490 1490 1488 1487 1486 1485 1484 1482 1480 1479 1477 1476 1475 1475 1474 1474 1474 1474 1474 1473 1473 1472 1472 1472
1514 1510 1506 1503 1499 1499 1503 1506 1509 1509 1510 1514 1518 1519 1517 1515 1513 1510 1506 1502 1500 1498 1496 1493 1491 1489 1487 1486 1484 1483 1482 1480 1479 1477 1475 1474 1472 1471 1471 1471 1471 1471 1471 1470 1470 1469 1469 1468 1468
1510 1509 1508 1500 1498 1501 1503 1505 1510 1512 1514 1518 1520 1521 1520 1519 1517 1513 1509 1505 1502 1500 1497 1494 1491 1488 1485 1483 1481 1480 1479 1477 1475 1473 1471 1470 1468 1467 1467 1466 1467 1467 1467 1467 1466 1465 1465 1464 1464
1509 1509 1505 1500 1497 1501 1501 1503 1512 1514 1517 1520 1522 1523 1523 1521 1519 1516 1513 1509 1505 1502 1499 1495 1491 1488 1485 1482 1478 1476 1475 1473 1471 1469 1467 1465 1464 1464 1463 1462 1462 1463 1462 1463 1463 1462 1462 1461 1461
1511 1511 1512 1511 1505 1500 1499 1503 1515 1517 1519 1522 1524 1525 1524 1522 1520 1518 1514 1511 1507 1503 1500 1496 1491 1487 1483 1479 1474 1471 1469 1467 1466 1464 1462 1460 1459 1459 1458 1458 1459 1459 1458 1458 1459 1459 1459 1459 1459
1519 1512 1513 1511 1514 1511 1503 1514 1522 1519 1521 1523 1525 1525 1524 1522 1520 1518 1514 1511 1507 1503 1499 1494 1488 1485 1481 1476 1470 1467 1464 1462 1461 1459 1456 1454 1454 1454 1453 1454 1455 1455 1454 1455 1455 1455 1455 1456 1456
1519 1514 1510 1506 1510 1513 1507 1513 1509 1518 1522 1525 1525 1525 1524 1522 1519 1517 1514 1510 1505 1500 1495 1490 1485 1481 1477 1473 1469 1464 1461 1458 1455 1453 1451 1449 1448 1448 1449 1449 1451 1451 1451 1451 1451 1451 1451 1452 1453
1516 1510 1498 1494 1503 1515 1501 1507 1513 1523 1527 1526 1525 1525 1524 1521 1518 1515 1511 1506 1500 1495 1491 1487 1483 1479 1474 1470 1466 1462 1457 1453 1449 1447 1446 1445 1444 1443 1443 1444 1446 1447 1447 1447 1447 1447 1447 1448 1449
1520 1521 1518 1515 1512 1509 1498 1502 1528 1527 1526 1526 1527 1526 1523 1520 1515 1511 1506 1501 1498 1495 1490 1486 1481 1476 1471 1466 1462 1458 1454 1449 1444 1442 1441 1440 1438 1437 1437 1438 1441 1442 1442 1443 1443 1444 1444 1445 1446
1527 1527 1538 1541 1528 1514 1503 1508 1534 1525 1526 1527 1526 1524 1521 1519 1516 1511 1507 1502 1497 1492 1487 1482 1477 1472 1466 1461 1457 1453 1449 1444 1439 1435 1434 1433 1432 1432 1432 1432 1435 1437 1438 1438 1439 1439 1440 1441 1442
1531 1533 1533 1538 1529 1522 1504 1532 1526 1523 1526 1526 1526 1525 1524 1521 1516 1511 1506 1501 1496 1490 1484 1479 1473 1467 1462 1457 1453 1448 1443 1438 1432 1427 1425 1425 1424 1426 1427 1428 1430 1432 1433 1434 1434 1434 1435 1436 1437
1532 1533 1537 1535 1535 1531 1516 1509 1527 1528 1530 1530 1529 1527 1524 1520 1515 1510 1505 1500 1494 1487 1481 1475 1470 1464 1459 1454 1449 1443 1437 1431 1425 1419 1416 1415 1415 1417 1421 1423 1426 1428 1429 1429 1429 1429 1430 1431 1432
1536 1532 1533 1535 1534 1540 1532 1527 1528 1533 1531 1531 1529 1527 1523 1519 1513 1508 1502 1497 1491 1484 1478 1471 1466 1461 1455 1450 1444 1438 1431 1424 1418 1412 1408 1407 1407 1408 1411 1415 1420 1423 1424 1424 1423 1423 1423 1424 1426
1539 1539 1542 1550 1546 1543 1545 1536 1521 1526 1528 1528 1526 1523 1519 1516 1512 1507 1501 1495 1488 1482 1475 1469 1463 1457 1451 1445 1439 1432 1425 1418 1411 1406 1403 1401 1400 1401 1404 1407 1412 1416 1417 1418 1417 1417 1417 1418 1420